Davenport, IA

2:44 AM CST on February 08, 2016 (GMT -0600)
Davenport Municipal

Weather History for KDVN - March, 2013

Change the Weather History Date:

Saturday, March 23, 2013

  Actual Average Record
Temperature  
Mean Temperature 33 °F 41 °F  
Max Temperature 43 °F 52 °F 71 °F (1963)
Min Temperature 22 °F 31 °F 10 °F (1974)
Degree Days  
Heating Degree Days 32 24  
Month to date heating degree days 848 659  
Since 1 July heating degree days 5634 5684  
Cooling Degree Days 0 0  
Month to date cooling degree days 0 0  
Year to date cooling degree days 0 0  
Moisture  
Dew Point 20 °F    
Average Humidity 58    
Maximum Humidity 81    
Minimum Humidity 34    
Precipitation  
Precipitation T in 0.08 in 1.21 in (2007)
Month to date precipitation 1.85 1.84  
Year to date precipitation 5.55 4.37  
Snow  
Snow 0.10 in - - ()
Month to date snowfall 6.4  
Since 1 July snowfall 25.0  
Snow Depth T in    
Sea Level Pressure  
Sea Level Pressure 30.09 in    
Wind  
Wind Speed 8 mph (ENE)    
Max Wind Speed 18 mph    
Max Gust Speed 22 mph    
Visibility 10 miles    
Events      
T = Trace of Precipitation, MM = Missing Value Source: NWS Daily Summary

Daily Weather History Graph

Daily Weather History Graph

Search for Another Location

Airport or City:

Trip Planner

Search our weather history database for the weather conditions in past years. The results will help you decide how hot, cold, wet, or windy it might be!

Date:

Astronomy

Mar. 23, 2013 Rise Set
Actual Time 7:00 AM CDT 7:18 PM CDT
Civil Twilight 6:32 AM CDT 7:45 PM CDT
Nautical Twilight 5:59 AM CDT 8:18 PM CDT
Astronomical Twilight 5:26 AM CDT 8:51 PM CDT
Moon 3:42 PM CDT (3/23) 4:39 AM CDT (3/23)
Length of Visible Light 13h 13m
Length of Day
12h 18m
Waxing Gibbous, 85% of the Moon is Illuminated
Mar 23
Waxing Gibbous
Mar 27
Full
Apr 2
Last Quarter
Apr 10
New
Apr 18
First Quarter

Hourly Weather History & Observations

Time (CDT) Temp. Windchill Dew Point Humidity Pressure Visibility Wind Dir Wind Speed Gust Speed Precip Events Conditions
12:52 AM 30.0 °F 26.5 °F 21.0 °F 69% 30.10 in 10.0 mi East 3.5 mph - N/A   Overcast
1:52 AM 30.0 °F 26.5 °F 21.0 °F 69% 30.10 in 10.0 mi East 3.5 mph - N/A   Overcast
2:52 AM 30.0 °F 26.5 °F 21.0 °F 69% 30.08 in 10.0 mi ESE 3.5 mph - N/A   Overcast
3:52 AM 28.0 °F - 21.0 °F 75% 30.08 in 10.0 mi Calm Calm - N/A   Mostly Cloudy
4:52 AM 26.1 °F - 21.0 °F 81% 30.08 in 10.0 mi Calm Calm - N/A   Partly Cloudy
5:52 AM 24.1 °F 18.2 °F 19.9 °F 84% 30.10 in 10.0 mi North 4.6 mph - N/A   Partly Cloudy
6:52 AM 24.1 °F 18.2 °F 19.9 °F 84% 30.12 in 8.0 mi NNE 4.6 mph - N/A   Scattered Clouds
7:52 AM 27.0 °F 21.6 °F 21.0 °F 78% 30.13 in 7.0 mi NE 4.6 mph - N/A   Clear
8:52 AM 32.0 °F 24.8 °F 23.0 °F 69% 30.12 in 9.0 mi ENE 8.1 mph - N/A   Clear
9:52 AM 35.1 °F 27.9 °F 19.9 °F 54% 30.13 in 10.0 mi ENE 9.2 mph - N/A   Clear
10:52 AM 37.9 °F 30.5 °F 19.0 °F 47% 30.13 in 10.0 mi ENE 11.5 mph - N/A   Clear
11:52 AM 39.9 °F 32.5 °F 17.1 °F 40% 30.12 in 10.0 mi ENE 12.7 mph - N/A   Clear
12:52 PM 41.0 °F 36.4 °F 17.1 °F 38% 30.12 in 10.0 mi ENE 6.9 mph - N/A   Clear
1:52 PM 41.0 °F 36.4 °F 16.0 °F 36% 30.12 in 10.0 mi ENE 6.9 mph - N/A   Clear
2:52 PM 42.1 °F 40.2 °F 18.0 °F 38% 30.09 in 10.0 mi Variable 3.5 mph - N/A   Clear
3:52 PM 42.1 °F 36.1 °F 18.0 °F 38% 30.05 in 10.0 mi East 10.4 mph - N/A   Clear
4:52 PM 41.0 °F 33.9 °F 19.9 °F 43% 30.03 in 10.0 mi ENE 12.7 mph - N/A   Clear
5:52 PM 39.0 °F 32.3 °F 19.0 °F 45% 30.04 in 10.0 mi East 10.4 mph - N/A   Clear
6:52 PM 37.0 °F 29.3 °F 21.0 °F 52% 30.04 in 10.0 mi NE 11.5 mph - N/A   Partly Cloudy
7:52 PM 35.1 °F 29.3 °F 21.0 °F 57% 30.05 in 10.0 mi ENE 6.9 mph - N/A   Mostly Cloudy
8:52 PM 34.0 °F 26.0 °F 21.0 °F 59% 30.06 in 10.0 mi NE 10.4 mph - N/A   Overcast
9:52 PM 34.0 °F 26.0 °F 21.9 °F 61% 30.05 in 10.0 mi NE 10.4 mph - N/A   Overcast
10:52 PM 33.1 °F 24.9 °F 21.0 °F 61% 30.05 in 10.0 mi NNE 10.4 mph - N/A   Overcast
11:52 PM 33.1 °F 24.9 °F 21.9 °F 64% 30.06 in 10.0 mi NE 10.4 mph - N/A   Overcast